Change the Weather History Date:

Tuesday, December 11, 2012

  Actual Average Record
Temperature  
Mean Temperature 36 °F -  
Max Temperature 39 °F 36 °F 51 °F (1957)
Min Temperature 33 °F 28 °F 10 °F (1956)
Degree Days  
Heating Degree Days 29    
Moisture  
Dew Point 32 °F    
Average Humidity 85    
Maximum Humidity 93    
Minimum Humidity 75    
Precipitation  
Precipitation 0.00 in - - ()
Sea Level Pressure  
Sea Level Pressure 29.59 in    
Wind  
Wind Speed 8 mph (WNW)    
Max Wind Speed 13 mph    
Max Gust Speed 18 mph    
Visibility 10 miles    
Events      
Averages and records for this station are not official NWS values.
T = Trace of Precipitation, MM = Missing Value Source: NWS Daily Summary

Daily Weather History Graph

Daily Weather History Graph

Search for Another Location

Airport or City:

Trip Planner

Search our weather history database for the weather conditions in past years. The results will help you decide how hot, cold, wet, or windy it might be!

Date:

Astronomy

Dec. 11, 2012 Rise Set
Actual Time 8:14 AM AKST 3:11 PM AKST
Civil Twilight 7:26 AM AKST 3:59 PM AKST
Nautical Twilight 6:37 AM AKST 4:48 PM AKST
Astronomical Twilight 5:50 AM AKST 5:35 PM AKST
Moon 6:07 AM AKST (12/11) 2:05 PM AKST (12/11)
Length of Visible Light 8h 32m
Length of Day
6h 56m
Waning Crescent, 3% of the Moon is Illuminated
Dec 11
Waning Crescent
Dec 12
New
Dec 19
First Quarter
Dec 28
Full
Jan 4
Last Quarter

Hourly Weather History & Observations

Time (AKST) Temp. Windchill Dew Point Humidity Pressure Visibility Wind Dir Wind Speed Gust Speed Precip Events Conditions
12:16 AM 39.2 °F 31.6 °F 35.6 °F 87% 29.35 in 10.0 mi East 12.7 mph - N/A   Overcast
12:36 AM 39.2 °F 31.6 °F 33.8 °F 81% 29.35 in 10.0 mi East 12.7 mph - N/A   Overcast
12:56 AM 39.2 °F 31.6 °F 35.6 °F 87% 29.35 in 10.0 mi East 12.7 mph 18.4 mph N/A   Overcast
1:16 AM 39.2 °F 32.0 °F 35.6 °F 87% 29.35 in 10.0 mi East 11.5 mph - N/A   Overcast
1:36 AM 37.4 °F 29.8 °F 33.8 °F 87% 29.35 in 10.0 mi East 11.5 mph 17.3 mph N/A   Overcast
1:56 AM 37.4 °F 30.3 °F 33.8 °F 87% 29.35 in 10.0 mi ESE 10.4 mph - N/A   Overcast
2:16 AM 37.4 °F 30.3 °F 33.8 °F 87% 29.36 in 10.0 mi ESE 10.4 mph - N/A   Overcast
2:36 AM 37.4 °F 30.8 °F 33.8 °F 87% 29.36 in 10.0 mi East 9.2 mph - N/A   Overcast
2:56 AM 37.4 °F 31.4 °F 33.8 °F 87% 29.36 in 10.0 mi ESE 8.1 mph - N/A   Overcast
3:16 AM 37.4 °F 30.8 °F 33.8 °F 87% 29.37 in 10.0 mi ESE 9.2 mph - N/A   Overcast
3:36 AM 37.4 °F 32.8 °F 33.8 °F 87% 29.37 in 10.0 mi ESE 5.8 mph - N/A   Overcast
3:56 AM 37.4 °F 30.8 °F 33.8 °F 87% 29.37 in 10.0 mi ESE 9.2 mph - N/A   Overcast
4:16 AM 37.4 °F 30.8 °F 33.8 °F 87% 29.37 in 10.0 mi ESE 9.2 mph - N/A   Overcast
4:36 AM 37.4 °F 31.4 °F 33.8 °F 87% 29.38 in 10.0 mi ESE 8.1 mph - N/A   Overcast
4:56 AM 37.4 °F 30.8 °F 33.8 °F 87% 29.39 in 10.0 mi ESE 9.2 mph - N/A   Overcast
5:16 AM 37.4 °F 32.1 °F 33.8 °F 87% 29.40 in 10.0 mi ESE 6.9 mph - N/A   Overcast
5:36 AM 37.4 °F 32.8 °F 32.0 °F 81% 29.41 in 10.0 mi SE 5.8 mph - N/A   Overcast
5:56 AM 35.6 °F 30.7 °F 32.0 °F 87% 29.42 in 10.0 mi SE 5.8 mph - N/A   Overcast
6:16 AM 35.6 °F 32.8 °F 32.0 °F 87% 29.43 in 10.0 mi SE 3.5 mph - N/A   Overcast
6:36 AM 35.6 °F - 32.0 °F 87% 29.43 in 10.0 mi Calm Calm - N/A   Overcast
6:56 AM 35.6 °F - 32.0 °F 87% 29.44 in 10.0 mi Calm Calm - N/A   Overcast
7:16 AM 35.6 °F - 30.2 °F 81% 29.45 in 10.0 mi Calm Calm - N/A   Overcast
7:36 AM 35.6 °F 31.7 °F 30.2 °F 81% 29.46 in 10.0 mi NW 4.6 mph - N/A   Overcast
7:56 AM 35.6 °F 31.7 °F 30.2 °F 81% 29.48 in 10.0 mi NW 4.6 mph - N/A   Overcast
8:16 AM 35.6 °F 31.7 °F 32.0 °F 87% 29.49 in 10.0 mi NNW 4.6 mph - N/A   Overcast
8:36 AM 35.6 °F 30.7 °F 32.0 °F 87% 29.50 in 10.0 mi NNW 5.8 mph - N/A   Overcast
8:56 AM 35.6 °F 27.5 °F 32.0 °F 87% 29.51 in 10.0 mi NW 11.5 mph - N/A   Overcast
9:16 AM 35.6 °F 30.7 °F 32.0 °F 87% 29.52 in 10.0 mi WNW 5.8 mph - N/A   Overcast
9:36 AM 35.6 °F 30.7 °F 33.8 °F 93% 29.53 in 10.0 mi NNW 5.8 mph - N/A   Overcast
9:56 AM 37.4 °F 34.9 °F 32.0 °F 81% 29.54 in 10.0 mi NW 3.5 mph - N/A   Overcast
10:16 AM 37.4 °F 32.8 °F 33.8 °F 87% 29.55 in 10.0 mi NW 5.8 mph - N/A   Overcast
10:36 AM 37.4 °F 32.1 °F 33.8 °F 87% 29.56 in 10.0 mi NW 6.9 mph - N/A   Overcast
10:56 AM 37.4 °F 32.1 °F 33.8 °F 87% 29.56 in 10.0 mi NW 6.9 mph - N/A   Overcast
11:16 AM 37.4 °F 33.8 °F 33.8 °F 87% 29.57 in 10.0 mi NNW 4.6 mph - N/A   Overcast
11:36 AM 37.4 °F 33.8 °F 33.8 °F 87% 29.57 in 10.0 mi NNW 4.6 mph - N/A   Overcast
11:56 AM 37.4 °F 32.1 °F 33.8 °F 87% 29.59 in 10.0 mi North 6.9 mph - N/A   Overcast
12:16 PM 37.4 °F 32.8 °F 33.8 °F 87% 29.60 in 10.0 mi North 5.8 mph - N/A   Overcast
12:36 PM 37.4 °F 32.8 °F 33.8 °F 87% 29.60 in 10.0 mi NW 5.8 mph - N/A   Overcast
12:56 PM 37.4 °F 32.8 °F 33.8 °F 87% 29.61 in 10.0 mi West 5.8 mph - N/A   Overcast
1:16 PM 37.4 °F 32.8 °F 33.8 °F 87% 29.61 in 10.0 mi WNW 5.8 mph - N/A   Overcast
1:36 PM 37.4 °F 33.8 °F 33.8 °F 87% 29.62 in 10.0 mi WNW 4.6 mph - N/A   Overcast
1:56 PM 37.4 °F 33.8 °F 33.8 °F 87% 29.63 in 10.0 mi WNW 4.6 mph - N/A   Overcast
2:16 PM 37.4 °F 32.8 °F 33.8 °F 87% 29.64 in 10.0 mi WNW 5.8 mph - N/A   Overcast
2:36 PM 37.4 °F 32.8 °F 33.8 °F 87% 29.65 in 10.0 mi WNW 5.8 mph - N/A   Overcast
2:56 PM 37.4 °F 34.9 °F 32.0 °F 81% 29.65 in 10.0 mi West 3.5 mph - N/A   Overcast
3:16 PM 37.4 °F 33.8 °F 33.8 °F 87% 29.67 in 10.0 mi West 4.6 mph - N/A   Overcast
3:36 PM 37.4 °F 32.8 °F 32.0 °F 81% 29.68 in 10.0 mi WNW 5.8 mph - N/A   Overcast
3:56 PM 37.4 °F 33.8 °F 33.8 °F 87% 29.68 in 10.0 mi West 4.6 mph - N/A   Overcast
4:16 PM 37.4 °F 34.9 °F 33.8 °F 87% 29.70 in 10.0 mi NW 3.5 mph - N/A   Overcast
4:36 PM 37.4 °F 33.8 °F 33.8 °F 87% 29.70 in 10.0 mi West 4.6 mph - N/A   Overcast
4:56 PM 37.4 °F 34.9 °F 32.0 °F 81% 29.71 in 10.0 mi West 3.5 mph - N/A   Overcast
5:16 PM 37.4 °F 32.8 °F 32.0 °F 81% 29.72 in 10.0 mi WNW 5.8 mph - N/A   Overcast
5:36 PM 35.6 °F 30.7 °F 30.2 °F 81% 29.72 in 10.0 mi SW 5.8 mph - N/A   Overcast
5:56 PM 37.4 °F 32.8 °F 32.0 °F 81% 29.73 in 10.0 mi West 5.8 mph - N/A   Overcast
6:16 PM 35.6 °F 30.7 °F 30.2 °F 81% 29.74 in 10.0 mi West 5.8 mph - N/A   Scattered Clouds
6:36 PM 35.6 °F 30.7 °F 30.2 °F 81% 29.76 in 10.0 mi West 5.8 mph - N/A   Scattered Clouds
6:56 PM 35.6 °F 30.7 °F 30.2 °F 81% 29.77 in 10.0 mi WNW 5.8 mph - N/A   Scattered Clouds
7:16 PM 35.6 °F 30.7 °F 30.2 °F 81% 29.77 in 10.0 mi West 5.8 mph - N/A   Scattered Clouds
7:36 PM 35.6 °F 31.7 °F 32.0 °F 87% 29.79 in 10.0 mi West 4.6 mph - N/A   Scattered Clouds
7:56 PM 35.6 °F 31.7 °F 32.0 °F 87% 29.79 in 10.0 mi NW 4.6 mph - N/A   Scattered Clouds
8:16 PM 35.6 °F - 30.2 °F 81% 29.80 in 10.0 mi Calm Calm - N/A   Scattered Clouds
8:36 PM 35.6 °F - 30.2 °F 81% 29.79 in 10.0 mi Calm Calm - N/A   Scattered Clouds
8:56 PM 33.8 °F 28.6 °F 28.4 °F 81% 29.81 in 10.0 mi West 5.8 mph - N/A   Scattered Clouds
9:16 PM 33.8 °F 28.6 °F 28.4 °F 81% 29.81 in 10.0 mi WSW 5.8 mph - N/A   Scattered Clouds
9:36 PM 33.8 °F 28.6 °F 30.2 °F 87% 29.82 in 10.0 mi WSW 5.8 mph - N/A   Scattered Clouds
9:56 PM 33.8 °F 27.0 °F 28.4 °F 81% 29.82 in 10.0 mi West 8.1 mph - N/A   Scattered Clouds
10:16 PM 35.6 °F 29.9 °F 28.4 °F 75% 29.84 in 10.0 mi NW 6.9 mph - N/A   Scattered Clouds
10:36 PM 35.6 °F 31.7 °F 30.2 °F 81% 29.85 in 10.0 mi WSW 4.6 mph - N/A   Scattered Clouds
10:56 PM 35.6 °F 30.7 °F 28.4 °F 75% 29.86 in 10.0 mi West 5.8 mph - N/A   Scattered Clouds
11:16 PM 35.6 °F 29.9 °F 28.4 °F 75% 29.87 in 10.0 mi WNW 6.9 mph - N/A   Overcast
11:36 PM 35.6 °F 29.9 °F 28.4 °F 75% 29.87 in 10.0 mi NW 6.9 mph - N/A   Mostly Cloudy
11:56 PM 33.8 °F - 28.4 °F 81% 29.88 in 10.0 mi Calm Calm - N/A   Scattered Clouds